Location: Stamford Observatory
(41.1241°N, 73.5498°W)
Time: 03:25:12
(UTC-04:00)

Daily predictions for brighter satellites

Satellite Brightness Start Highest point End
(mag) Time Altitude Azimuth Time Altitude Azimuth Time Altitude Azimuth
Cosmos 1447 Rocket 4.3 00:04:26 10° N 00:10:37 85° ENE 00:10:37 85° ENE
NOSS 3-1 (A) 4.3 00:04:42 10° NW 00:12:07 52° WSW 00:12:56 50° SW
Cosmos 2219 4.1 00:08:53 10° N 00:14:09 39° ENE 00:14:20 39° ENE
CZ-4B R/B 4.5 00:23:18 14° N 00:23:18 14° N 00:23:49 10° N
Cosmos 1943 Rocket 2.4 00:21:41 66° NNE 00:21:41 66° NNE 00:26:31 10° NNE
Terra 4.3 00:23:26 12° W 00:23:26 12° W 00:25:05 10° WNW
Cosmos 968 Rocket 4.1 00:18:21 10° NNW 00:22:41 52° NNE 00:22:41 52° NNE
Cosmos 2100 Rocket 4.0 00:26:37 72° ENE 00:26:37 72° ENE 00:32:45 10° NNE
ISS 0.1 00:27:18 10° NNW 00:27:59 13° NNW 00:27:59 13° NNW
ATLAS 2AS CENTAUR R/B 2.8 00:25:18 10° NW 00:33:28 89° SW 00:34:23 73° SSE
Cosmos 1459 Rocket 3.9 00:34:36 74° NE 00:34:36 74° NE 00:40:14 10° N
Cosmos 1241 Rocket 4.5 00:34:08 10° NNW 00:40:24 83° WNW 00:40:24 83° WNW
Cosmos 2016 Rocket 4.2 00:41:13 60° ENE 00:41:13 60° ENE 00:46:43 10° NNE
USA 234 3.8 00:34:49 10° NE 00:41:09 54° NNW 00:45:23 22° WSW
MOS 1-B Rocket 4.0 00:45:42 89° ESE 00:45:43 90° ENE 00:52:45 10° NNW
Cosmos 2061 Rocket 4.0 00:51:28 80° WNW 00:51:28 80° WNW 00:57:48 10° N
ALOS 2 4.4 00:56:39 27° NW 00:56:39 27° NW 00:58:58 10° NNW
Cosmos 44 Rocket 4.5 00:50:06 10° NW 00:53:22 39° NW 00:53:22 39° NW
Cosmos 1802 Rocket 3.9 00:56:59 80° NW 00:56:59 80° NW 01:03:04 10° N
Cosmos 2173 Rocket 4.1 00:58:52 70° WNW 00:58:52 70° WNW 01:05:09 10° N
Lacrosse 5 4.5 01:01:19 10° WNW 01:04:49 18° NNW 01:08:20 10° NNE
CZ-2C R/B 3.7 01:06:05 48° NNE 01:06:05 48° NNE 01:09:50 10° N
H-2A R/B 4.3 01:13:44 10° N 01:16:44 28° NW 01:16:44 28° NW
Cosmos 44 4.3 01:12:33 10° NNW 01:16:11 45° NNW 01:16:11 45° NNW
Cosmos 1725 Rocket 3.9 01:19:35 79° NE 01:19:35 79° NE 01:25:27 10° N
ATLAS CENTAUR R/B 3.7 01:26:45 22° ENE 01:26:45 22° ENE 01:29:04 10° NE
ATLAS 3B CENTAUR R/B 4.4 01:24:02 48° S 01:24:51 48° SSE 01:50:06 10° ESE
Cosmos 2208 Rocket 4.5 01:31:59 58° NNE 01:31:59 58° NNE 01:36:13 10° NNE
Cosmos 2098 Rocket 4.2 01:31:20 77° SW 01:31:53 82° W 01:39:35 10° N
SeaSat 1 3.9 01:31:59 29° ENE 01:32:59 31° NE 01:37:17 10° N
CZ-2C R/B 3.2 01:32:38 10° N 01:37:09 49° NW 01:37:09 49° NW
Tsikada Rocket 4.0 01:32:43 10° N 01:38:51 74° WNW 01:38:51 74° WNW
Cosmos 2058 Rocket 4.3 01:48:19 39° NNW 01:48:19 39° NNW 01:51:14 10° N
Cosmos 2082 4.0 01:43:29 10° NNW 01:49:04 59° ENE 01:49:17 58° ENE
Cosmos 1980 Rocket 4.4 01:49:28 13° ESE 01:49:54 14° E 01:52:33 10° ENE
Cosmos 2346 Rocket 4.5 01:43:47 10° N 01:50:05 72° E 01:50:25 70° ESE
Meteor 2-9 Rocket 4.3 01:52:13 78° NNW 01:52:13 78° NNW 01:57:40 10° N
BREEZE-M DEB (TANK) 4.3 01:54:57 46° E 01:54:57 46° E 01:57:29 10° ENE
NOSS 3-4 (A) 4.4 01:49:49 10° NNW 01:56:38 53° NE 02:02:23 16° ESE
NOSS 3-4 (C) 4.4 01:49:55 10° NNW 01:56:44 53° NE 02:02:39 16° ESE
Cosmos 2227 Rocket 2.3 01:51:14 10° NNW 01:56:52 72° ENE 01:56:52 72° ENE
Cosmos 1943 Rocket 4.4 02:03:11 12° WNW 02:05:27 15° NW 02:08:36 10° NNW
Meteor 2-17 Rocket 4.4 02:07:28 71° W 02:07:31 71° W 02:13:38 10° N
PSLV R/B 4.3 02:07:03 10° NNE 02:10:37 55° NNE 02:10:37 55° NNE
Cosmos 1898 Rocket 3.5 02:12:06 10° NNW 02:17:17 78° NE 02:17:17 78° NE
Cosmos 2297 Rocket 2.2 02:11:59 10° NNW 02:17:40 76° ENE 02:18:02 72° ESE
Cosmos 2150 Rocket 4.0 02:12:57 10° NNW 02:17:52 74° NNE 02:17:52 74° NNE
Cosmos 2278 3.7 02:19:10 71° WNW 02:19:10 71° WNW 02:24:51 10° NNE
Cosmos 2233 Rocket 4.2 02:20:31 52° W 02:20:41 52° W 02:26:41 10° N
Cosmos 2369 3.6 02:21:59 76° WNW 02:22:00 76° WNW 02:27:42 10° NNE
Cosmos 1464 Rocket 4.0 02:22:37 66° SSE 02:23:26 76° E 02:29:48 10° N
Cosmos 1937 Rocket 3.7 02:18:50 10° NNW 02:24:00 64° ENE 02:24:22 62° E
Okean 3 Rocket 4.3 02:23:22 10° N 02:27:19 48° ENE 02:27:19 48° ENE
Meteor 2-5 Rocket 3.7 02:28:43 10° N 02:34:39 88° ENE 02:35:22 71° SSE
Cosmos 405 Rocket 4.0 02:36:35 10° NNW 02:39:14 39° NNW 02:39:14 39° NNW
ERS-2 3.8 02:38:43 10° NE 02:41:30 29° E 02:41:30 29° E
Cosmos 1656 3.5 02:44:01 75° SSW 02:44:31 88° WNW 02:50:13 10° NNE
ARIANE 5 R/B 4.0 02:43:01 10° NE 02:47:30 29° E 02:49:12 24° SE
Cosmos 1513 Rocket 4.3 02:49:03 64° SSW 02:50:03 83° W 02:56:09 10° N
IRS-1C 4.3 02:45:50 10° NNE 02:51:09 64° ESE 02:52:03 54° SSE
CZ-2D R/B 3.8 02:47:50 10° NE 02:52:19 26° E 02:54:53 18° SE
AQUA 3.7 02:51:25 10° NNE 02:56:12 86° ESE 02:56:24 82° SSE
Cosmos 1766 3.8 02:58:28 56° ENE 02:58:28 56° ENE 03:02:03 10° NNE
BREEZE-M DEB (TANK) 4.0 02:51:44 10° WNW 02:58:46 38° W 02:58:46 38° W
USA 161 3.8 03:03:58 24° NE 03:03:58 24° NE 03:05:33 10° N
ATLAS CENTAUR R/B 2.6 03:03:04 38° WNW 03:03:46 40° NW 03:08:29 10° NNE
Meteor 1-24 Rocket 3.7 02:58:53 10° N 03:04:42 89° WSW 03:06:30 47° S
Cosmos 1814 Rocket 4.4 03:06:30 46° W 03:07:09 49° WNW 03:12:21 10° N
IRS-P3 4.3 03:02:10 10° N 03:07:22 55° WNW 03:08:06 50° W
Meteor 1-22 Rocket 4.3 03:08:04 50° S 03:09:47 89° W 03:15:57 10° N
ADEOS 3.6 03:04:58 10° NNE 03:10:13 77° ESE 03:11:27 53° S
SeaSat 1 3.5 03:11:46 30° WNW 03:11:46 30° WNW 03:14:56 10° NW
Cosmos 1441 Rocket 3.5 03:07:22 10° N 03:11:22 67° E 03:11:37 65° ESE
IRAS Rocket 4.2 03:06:01 10° NNE 03:11:41 82° WNW 03:13:05 53° SSW
Cosmos 1408 Rocket 3.7 03:07:41 10° N 03:12:05 68° E 03:12:57 53° SE
Spot 4 Rocket 4.1 03:07:37 10° NNE 03:12:47 72° ESE 03:14:09 49° S
CBERS-1 4.0 03:09:54 10° N 03:14:59 63° WNW 03:15:48 55° WSW
Okean O Rocket 4.3 03:13:38 10° ENE 03:15:39 13° E 03:17:39 10° ESE
Cosmos 1766 Rocket 3.6 03:14:08 10° N 03:18:34 74° E 03:19:35 51° SSE
Resurs 1-4 Rocket 2.8 03:16:21 10° NNE 03:21:25 46° E 03:23:56 27° SSE
IRS-1D 3.9 03:16:54 10° NNE 03:21:48 56° E 03:23:43 34° SSE
Cosmos 1707 4.4 03:18:59 10° NNW 03:21:07 24° NW 03:21:07 24° NW
Cosmos 990 Rocket 4.1 03:17:51 10° NNW 03:22:57 52° WSW 03:23:20 50° WSW
Cosmos 1697 Rocket 2.9 03:21:51 45° WSW 03:23:16 58° WNW 03:28:53 10° NNE
Cosmos 1805 3.9 03:23:30 42° SE 03:24:17 49° E 03:28:04 10° NNE
Cosmos 1461 3.7 03:20:52 10° NNW 03:24:54 49° NE 03:28:46 10° SE
Cosmos 2034 Rocket 4.4 03:25:17 39° WSW 03:26:52 47° WNW 03:32:48 10° N
Nadezhda 4 Rocket 3.9 03:22:30 10° NNW 03:28:40 67° W 03:31:08 37° SSW
BREEZE-M R/B 4.3 03:22:41 10° WNW 03:28:44 50° SW 03:35:17 10° SSE
SL-08 R/B 4.1 03:30:09 34° W 03:30:09 34° W 03:33:55 10° NNW
Cosmos 1980 Rocket 2.1 03:31:15 44° SW 03:33:06 79° WNW 03:38:49 10° NNE
SAR-Lupe-3 4.3 03:37:22 77° W 03:37:22 77° W 03:40:48 10° NNW
Cosmos 1758 3.2 03:38:49 55° S 03:39:40 86° E 03:43:41 10° N
Cosmos 2227 Rocket 4.1 03:37:07 10° WNW 03:38:39 14° WNW 03:38:39 14° WNW
Cosmos 1953 2.2 03:41:06 54° SSW 03:41:59 86° W 03:46:05 10° N
Cosmos 1674 4.4 03:39:18 10° NNE 03:42:41 31° ENE 03:46:02 10° SE
Cosmos 1437 2.9 03:41:30 10° N 03:44:51 73° E 03:45:34 51° SSE
Cosmos 2322 Rocket 2.7 03:43:47 24° S 03:46:58 53° ESE 03:52:26 10° NNE
NOSS 3-4 (A) 4.4 03:41:07 10° NW 03:47:24 35° WSW 03:49:39 29° SW
NOSS 3-4 (C) 4.4 03:41:12 10° NW 03:47:30 35° WSW 03:49:54 29° SSW
SL-16 R/B 2.4 03:45:21 16° S 03:50:21 77° WSW 03:56:33 10° NNW
Cosmos 1655 Rocket 4.3 03:45:20 10° N 03:51:45 72° E 03:58:07 10° SSE
Meteor 1-21 Rocket 4.3 03:49:14 10° N 03:55:11 86° W 04:00:41 12° S
Cosmos 841 Rocket 4.4 03:56:06 27° WSW 03:57:58 35° WNW 04:02:47 10° N
SL-24 R/B - RUBIN 2 4.3 03:56:07 30° SSW 03:59:09 87° ESE 04:05:36 10° NNE
Cosmos 2026 Rocket 4.0 03:52:54 10° N 03:59:16 87° E 04:05:29 10° S
USA 81 4.2 03:55:41 19° S 03:59:31 77° E 04:04:48 10° N
Cosmos 1378 4.5 03:57:08 10° NNW 03:59:52 25° WNW 03:59:52 25° WNW
Cosmos 2297 Rocket 4.0 03:58:03 10° WNW 03:59:47 14° W 03:59:47 14° W
Cosmos 1076 Rocket 4.5 04:00:03 10° NNW 04:03:45 28° W 04:04:05 28° W
Cosmos 1125 Rocket 3.6 04:00:33 10° NNW 04:05:36 52° WSW 04:09:12 19° S
GPS 2-04 Rocket1 4.0 04:09:35 24° S 04:09:35 24° S 04:12:12 10° SE
Cosmos 1634 Rocket 4.2 04:06:30 24° SSW 04:10:13 57° W 04:16:26 10° N
Cosmos 2195 Rocket 4.4 04:04:43 10° NNW 04:10:48 67° W 04:16:23 12° S
ERS-2 4.0 04:13:06 10° NNW 04:15:38 18° WNW 04:16:20 17° W
DELTA 2 R/B (1) 4.1 04:12:49 25° SW 04:15:39 45° SSE 04:20:57 10° E
CZ-3A R/B 3.8 04:07:23 17° WSW 04:16:11 57° NW 04:20:37 10° NE
Cosmos 540 Rocket 3.7 04:16:37 24° SW 04:19:33 56° WNW 04:24:39 10° N
MOS 1-B 4.4 04:15:38 10° N 04:21:25 69° WNW 04:25:53 17° SSW
SL-16 R/B 2.2 04:18:32 20° SSW 04:22:35 84° WNW 04:28:18 10° NNE
Aureole 1 Rocket 4.2 04:19:01 19° SSW 04:23:39 75° WNW 04:31:32 10° NNE
Milstar 3 Cent rocket 3.5 04:21:57 19° SSW 04:23:50 23° S 04:29:27 10° SE
Cosmos 1470 2.7 04:21:21 20° SSW 04:23:58 78° W 04:27:58 10° N
Cosmos 1500 Rocket 3.6 04:20:11 10° NNW 04:24:29 58° W 04:28:12 13° S
RESURS DK-1 2.6 04:20:59 10° NW 04:24:57 46° WSW 04:28:54 10° S
ADEOS II 4.3 04:21:02 10° NE 04:25:06 22° E 04:29:10 10° SE
IRS-1C Rocket 4.2 04:20:29 10° NNE 04:25:46 78° ESE 04:30:59 10° S
ARIANE 5 R/B 3.4 04:22:01 10° N 04:26:37 34° WNW 04:29:33 19° WSW
MOZ.5/SAFIR/RUBIN 5/SL-8 4.0 04:23:23 10° SSE 04:28:05 74° ENE 04:32:45 10° N
Cosmos 2058 4.2 04:24:30 10° N 04:28:33 43° ENE 04:32:34 10° SSE
CZ-3 R/B 4.0 04:05:11 17° WSW 04:29:42 44° S 04:38:19 10° ESE
Cosmos 2263 Rocket 2.7 04:24:19 10° NNW 04:29:52 64° ENE 04:35:22 10° SE
Cosmos 1743 Rocket 4.3 04:26:44 10° NNW 04:30:39 33° W 04:33:03 19° SW
CZ-2D R/B 2.7 04:27:24 10° N 04:32:30 41° WNW 04:36:13 17° SW
Lacrosse 5 4.3 04:30:09 10° NNW 04:34:19 25° NNE 04:38:28 10° E
Cosmos-2242 4.4 04:33:18 18° WSW 04:34:58 22° WNW 04:38:21 10° NNW
Cosmos 2221 3.0 04:31:52 10° S 04:36:04 59° E 04:40:19 10° NNE
PSLV R/B 3.6 04:35:44 10° N 04:39:32 75° WNW 04:42:53 13° SSW
Cosmos 1544 4.1 04:38:04 20° WSW 04:39:46 28° WNW 04:42:59 10° NNW
Cosmos 1428 Rocket 4.4 04:36:06 10° NNW 04:42:11 67° W 04:48:13 10° S
Cosmos 2084 4.2 04:38:57 10° NNW 04:42:59 55° NE 04:47:12 10° SE
Cosmos 2322 4.4 04:38:50 10° S 04:44:23 55° ESE 04:49:59 10° NNE
CZ-4B R/B 3.2 04:39:17 10° NNE 04:44:50 86° ESE 04:50:14 10° SSW
GEOS 3 Rocket 3.7 04:39:49 10° SSE 04:44:56 56° WSW 04:50:02 10° NW
UNKNOWN OBJECT B 4.0 04:47:30 10° NNW 04:50:45 26° WNW 04:53:13 14° WSW
Cosmos 1733 3.6 04:48:32 13° SSW 04:51:36 43° WNW 04:55:15 10° N
Okean O Rocket 1.8 04:48:02 10° N 04:52:22 58° WNW 04:56:42 10° SSW
Aureole 3 4.2 04:49:58 10° N 04:54:38 81° E 05:00:37 10° S
Lacrosse 5 rocket 3.2 04:52:40 10° NNW 04:55:54 29° NE 04:59:11 10° E
PAYLOAD B 4.3 04:52:17 10° N 04:57:53 72° WNW 05:03:25 10° SSW
Meteor 1-16 Rocket 4.4 04:52:46 10° S 04:58:43 83° W 05:04:39 10° N
Resurs 1-4 Rocket 3.5 04:56:54 10° NNW 05:00:56 23° WNW 05:04:57 10° WSW
Thor Agena Rocket 3.4 04:56:43 10° S 05:01:44 71° WSW 05:06:47 10° NNW
Cosmos 1538 Rocket 4.3 04:57:50 10° SW 05:02:58 52° WNW 05:08:13 10° N
Cosmos 1461 4.5 05:01:25 10° WNW 05:03:36 14° WSW 05:05:45 10° SW
ARGOS Delta rocket 3.9 04:58:55 10° N 05:03:54 65° WNW 05:08:35 10° SSW
Cosmos 371 Rocket 4.3 05:00:57 11° SW 05:04:59 31° WNW 05:09:17 10° N
PSLV R/B 4.0 05:00:58 10° NNE 05:05:11 62° E 05:09:26 10° S
Cosmos 923 Rocket 4.1 05:02:30 10° SSW 05:07:42 80° ESE 05:12:55 10° NNE
DELTA 2 R/B (2) 4.2 05:05:37 10° W 05:07:51 28° SSW 05:09:31 10° SE
CZ-2C R/B 4.3 05:04:02 10° SSW 05:08:21 37° W 05:12:39 10° NNW
CZ-4B R/B 3.1 05:08:07 10° N 05:11:51 48° WNW 05:15:24 10° SSW
ADEOS Rocket 3.8 05:06:50 10° NNE 05:13:30 67° ESE 05:20:50 10° S
Cosmos 773 Rocket 4.0 05:08:54 10° SSW 05:14:01 69° WNW 05:19:14 10° NNE
Cosmos 2360 Rocket 2.2 05:11:57 10° SSW 05:17:35 77° WNW 05:23:15 10° NNE
Cosmos 1674 4.4 05:15:48 10° NW 05:18:02 15° W 05:20:16 10° WSW
Cosmos 1980 Rocket 4.2 05:15:17 10° WNW 05:18:04 14° NW 05:20:53 10° NNW
Cosmos 921 Rocket 3.2 05:15:39 10° NNW 05:20:13 84° ENE 05:24:43 10° SSE
CZ-3 Stage 3 4.4 05:23:13 10° W 05:43:23 31° SW 05:48:49 10° SSE
